[[{"header":{"parameterUnit":"m.s-1","parameterCategory":1,"la1":30.2991,"la2":30.254,"lo1":-89.0895,"lo2":-89.0444,"dy":0.0017,"dx":0.0017,"nx":28,"ny":28,"refTime":"2023-10-19T09:00:00:Z","depth":0,"parameterNumber":2,"parameterNumberName":"U-component_of_WINDS"},"data":[0,0,0,0,0,0,0,0,0,0,0,0,0,0,0,0,0,0,0,0,0,0,0,0,0,0,0,0,0,0,0,0,0,0,0,0,0,0,0,0,0,0,0,0,0,0,0,0,0,0,0,0,0,0,0,0,0,0,3.8083,3.8084,0,3.8217,3.8218,3.822,3.8193,3.819,3.8188,3.8185,3.8324,3.8329,3.8335,0,0,0,0,0,0,0,0,0,0,0,0,0,3.7808,3.7813,3.8083,3.8084,3.8086,3.8216,3.8218,3.822,3.8193,3.819,3.8187,3.8184,3.8322,3.8329,3.8336,0,0,0,0,0,0,0,0,0,0,0,0,0,3.7933,3.7815,3.8083,3.8088,3.809,3.8216,3.8218,3.822,3.8194,3.819,3.8186,3.8183,3.8319,3.8328,3.8337,3.8465,0,0,3.8364,3.8368,0,0,0,0,0,0,0,0,3.7926,3.7943,3.8086,3.8088,3.8091,3.8184,3.8172,3.8303,3.8195,3.8155,3.8185,3.8181,3.828,3.8292,3.8325,3.8472,3.8478,3.8365,3.837,3.8374,3.8377,0,0,0,0,0,0,0,3.7918,3.7937,3.8136,3.8088,3.8091,3.8086,3.8099,3.8197,3.8236,3.8158,3.8156,3.8172,3.8281,3.8317,3.8328,3.848,3.8365,3.8373,3.8378,3.8382,3.8743,3.8747,0,0,0,0,0,0,3.7906,3.793,3.8131,3.814,3.7998,3.8094,3.8109,3.8158,3.8235,3.8243,3.8175,3.817,3.8303,3.8318,3.8333,3.8491,3.8374,3.8383,3.8388,3.8739,3.8744,3.8749,0,0,0,0,0,0,3.7901,3.7925,3.8126,3.8035,3.806,3.8102,3.8157,3.8162,3.8198,3.8248,3.8256,3.8204,3.8301,3.8321,3.8434,3.8496,3.8387,3.8395,3.8734,3.8741,3.8746,3.8807,0,0,0,0,0,0,3.7893,3.7923,3.7971,3.8036,3.8065,3.8223,3.8161,3.8168,3.8214,3.8209,3.8278,3.8286,3.83,3.842,3.8443,3.8506,3.8402,3.8729,3.8737,3.8744,3.88,3.8815,3.8828,0,0,0,0,0,3.7883,3.7982,3.7973,3.7998,3.8126,3.8227,3.8243,3.8257,3.8219,3.8268,3.8301,3.8283,3.8485,3.8432,3.8457,3.8524,3.8725,3.8735,3.8744,3.8794,3.8812,3.8827,0,0,0,0,0,0,3.7922,3.799,3.7981,3.8104,3.816,3.8222,3.8284,3.8275,3.8343,3.8336,3.8351,3.8367,3.8482,3.8514,3.8454,3.8655,3.86,3.8615,3.8629,3.8647,3.8661,3.8651,3.8409,0,0,0,0,0,3.7945,3.802,3.8076,3.8179,3.8208,3.8242,3.8286,3.8292,3.8351,3.8374,3.8415,3.8473,3.855,3.86,3.8674,3.8805,3.8821,3.8864,3.8877,3.8889,3.8902,3.8977,3.8997,3.878,3.878,3.878,0,0,3.7993,3.8039,3.8086,3.8188,3.8232,3.8312,3.8261,3.8347,3.8406,3.8387,3.8497,3.853,3.8596,3.8719,3.8776,3.875,3.8966,3.8901,3.8909,3.8916,3.8989,3.9009,3.9028,3.8787,3.8785,3.8784,0,0,3.8121,3.8163,3.8255,3.8301,3.8368,3.8391,3.8413,3.8478,3.8499,3.8609,3.8598,3.867,3.8801,3.885,3.8892,3.9043,3.9031,3.9067,3.914,3.9213,3.923,3.9245,3.9302,3.9322,3.9079,3.908,3.908,0,3.8172,3.829,3.8303,3.8391,3.8438,3.8425,3.852,3.8564,3.8652,3.8685,3.8655,3.8822,3.8865,3.9002,3.9039,3.9073,3.9101,3.9059,3.9226,3.9242,3.9256,3.931,3.9331,3.9084,3.9083,3.9083,3.9082,0,3.8351,3.8433,3.85,3.8586,3.8641,3.8731,3.876,3.8814,3.8816,3.8843,3.8958,3.901,3.9095,3.9128,3.9131,3.9267,3.9249,3.9222,3.9168,3.9281,3.9332,3.9353,3.909,3.9088,3.9087,3.9086,0,0,3.8504,3.86,3.8624,3.8665,3.8741,3.8806,3.8897,3.8981,3.9028,3.9091,3.9169,3.9283,3.926,3.9308,3.9317,3.9381,3.9501,3.9347,3.9349,3.9376,3.9658,3.9678,3.9701,3.9494,3.9498,3.9501,3.9653,0,3.8641,3.8802,3.8818,3.8963,3.9041,3.9033,3.9113,3.9169,3.9198,3.927,3.9301,3.9382,3.9345,3.9374,3.9437,3.9473,3.9558,3.9462,3.9569,3.9573,3.9553,3.9727,3.9748,3.9889,3.9673,3.9676,3.9678,0,3.882,3.889,3.9042,3.9111,3.9144,3.9216,3.9296,3.9364,3.943,3.9446,3.9502,3.9503,3.96,3.9542,3.9678,3.9612,3.9657,3.9682,3.9688,3.9699,3.9632,3.9745,3.9934,3.9955,3.971,3.9707,3.9705,0,3.892,3.9051,3.916,3.9195,3.9277,3.9329,3.9365,3.9427,3.9477,3.9548,3.9582,3.9663,3.9708,3.9771,3.9796,3.9751,3.9931,3.9874,3.995,3.9949,3.9988,3.9985,4.0188,4.0015,4.0015,4.0014,4.0014,0,3.9071,3.9165,3.9207,3.9274,3.9381,3.94,3.9506,3.954,3.9596,3.9671,3.9669,3.974,3.9767,3.9843,3.9863,3.9974,3.9994,4.0012,4.0016,4.0012,4.0011,4.0042,4.0034,4.002,4.0019,4.0018,4.0017,0,3.9199,3.9231,3.935,3.9419,3.9438,3.9514,3.9574,3.964,3.9669,3.9765,3.9789,3.9834,3.9924,3.9955,4.0064,4.0077,4.0207,4.0203,4.0185,4.0186,4.0261,4.0254,4.0492,4.0525,4.0329,4.0331,4.0332,0,3.9294,3.9367,3.9444,3.9495,3.9534,3.9615,3.9667,3.969,3.9745,3.9828,3.9885,3.9974,4.0047,4.0192,4.0236,4.0321,4.0319,4.0397,4.0331,4.0327,4.0322,4.0318,4.0327,4.0409,4.0411,4.0412,4.0414,0,3.9459,3.9472,3.9547,3.963,3.9693,3.9758,3.9822,3.9864,3.9897,3.9959,4.0052,4.0109,4.0222,4.0312,4.0399,4.0438,4.0433,4.0434,4.0456,4.0454,4.0442,4.0451,4.022,4.0428,4.0427,4.0426,4.0425,4.0424,3.9575,3.964,3.9706,3.9791,3.9842,3.9903,3.997,4.0008,4.0085,4.0179,4.0188,4.0289,4.0356,4.0473,4.0517,4.0597,4.0576,4.0607,4.0615,4.0623,4.063,4.0429,4.0613,4.0613,4.0612,4.0612,4.0612,0,3.9742,3.9784,3.9863,3.9953,4.0021,4.001,4.0081,4.0139,4.0227,4.029,4.0363,4.0471,4.056,4.0612,4.0701,4.0756,4.0756,4.0779,4.0775,4.0785,4.0643,4.0616,4.0777,4.0777,4.0777,4.0777,4.0777,4.0777,3.9836,3.9948,3.9969,4.0107,4.0149,4.0248,4.029,4.0347,4.0398,4.0519,4.0592,4.0626,4.0686,4.078,4.0862,4.0875,4.0909,4.0934,4.0945,4.0812,4.0795,4.0778,4.0753,4.0941,4.0941,4.1081,4.1082,4.1083]},{"header":{"parameterUnit":"m.s-1","parameterCategory":1,"la1":30.2991,"la2":30.254,"lo1":-89.0895,"lo2":-89.0444,"dy":0.0017,"dx":0.0017,"nx":28,"ny":28,"refTime":"2023-10-19T09:00:00:Z","depth":0,"parameterNumber":3,"parameterNumberName":"V-component_of_WINDS"},"data":[0,0,0,0,0,0,0,0,0,0,0,0,0,0,0,0,0,0,0,0,0,0,0,0,0,0,0,0,0,0,0,0,0,0,0,0,0,0,0,0,0,0,0,0,0,0,0,0,0,0,0,0,0,0,0,0,0,0,0.7081,0.7081,0,0.714,0.7141,0.7141,0.7162,0.7162,0.7162,0.7161,0.7223,0.7224,0.7226,0,0,0,0,0,0,0,0,0,0,0,0,0,0.6987,0.6988,0.7081,0.7082,0.7082,0.714,0.7141,0.7141,0.7162,0.7162,0.7162,0.7161,0.7222,0.7224,0.7226,0,0,0,0,0,0,0,0,0,0,0,0,0,0.7035,0.6989,0.7081,0.71,0.7102,0.714,0.7141,0.7142,0.7162,0.7162,0.7162,0.7161,0.7221,0.7224,0.7227,0.725,0,0,0.7235,0.7236,0,0,0,0,0,0,0,0,0.7032,0.7038,0.7096,0.7098,0.7101,0.7143,0.713,0.7178,0.7162,0.7139,0.7161,0.7161,0.7197,0.7201,0.7213,0.7253,0.7256,0.7235,0.7237,0.7238,0.7239,0,0,0,0,0,0,0,0.7029,0.7036,0.7104,0.7097,0.71,0.7105,0.7112,0.7139,0.7169,0.7141,0.7143,0.715,0.7198,0.721,0.7215,0.7257,0.7235,0.7238,0.7239,0.724,0.7319,0.7319,0,0,0,0,0,0,0.7022,0.7033,0.7102,0.7106,0.7065,0.7107,0.7115,0.713,0.7169,0.7174,0.715,0.715,0.7206,0.7211,0.7217,0.7247,0.7238,0.7241,0.7242,0.7319,0.7319,0.732,0,0,0,0,0,0,0.702,0.7028,0.71,0.707,0.708,0.7109,0.7126,0.7131,0.7144,0.7175,0.7181,0.7157,0.7206,0.7213,0.7242,0.725,0.7242,0.7244,0.7318,0.7319,0.7319,0.7308,0,0,0,0,0,0,0.7017,0.7027,0.7036,0.707,0.7081,0.7123,0.7127,0.7133,0.7149,0.715,0.7184,0.7189,0.7206,0.7238,0.7244,0.7253,0.7247,0.7317,0.7318,0.7319,0.7307,0.7308,0.7308,0,0,0,0,0,0.7014,0.7031,0.7037,0.7045,0.7093,0.7124,0.713,0.715,0.7149,0.7159,0.7179,0.7188,0.7248,0.724,0.7248,0.7258,0.7317,0.7318,0.7319,0.7307,0.7308,0.7308,0,0,0,0,0,0,0.6997,0.7035,0.7042,0.7071,0.7094,0.7127,0.714,0.7149,0.7173,0.7173,0.7197,0.7204,0.7231,0.7247,0.7239,0.7283,0.7283,0.7286,0.7271,0.7272,0.7272,0.7268,0.7249,0,0,0,0,0,0.6997,0.7019,0.7051,0.7073,0.7084,0.711,0.7124,0.7137,0.7162,0.7172,0.7194,0.7218,0.7243,0.7258,0.7282,0.731,0.7318,0.7321,0.7321,0.7321,0.7323,0.7339,0.7341,0.7323,0.7323,0.7323,0,0,0.6996,0.702,0.7032,0.707,0.7089,0.7112,0.7118,0.7141,0.7158,0.7176,0.7204,0.7221,0.725,0.7278,0.7292,0.7292,0.733,0.7322,0.7322,0.7324,0.734,0.7342,0.7343,0.7324,0.7323,0.7323,0,0,0.7007,0.7027,0.7047,0.7066,0.7096,0.7113,0.7118,0.715,0.7162,0.7191,0.7205,0.7225,0.7266,0.7286,0.7302,0.732,0.7329,0.7327,0.7329,0.7344,0.7346,0.7347,0.7354,0.7356,0.7329,0.7329,0.7329,0,0.7002,0.7036,0.7056,0.7079,0.7095,0.7112,0.7133,0.7151,0.7187,0.7198,0.7198,0.7251,0.7271,0.7304,0.7309,0.732,0.7327,0.7323,0.7344,0.7345,0.7347,0.7354,0.7356,0.7328,0.7328,0.7329,0.7329,0,0.703,0.7053,0.7066,0.71,0.7118,0.7139,0.7163,0.7179,0.719,0.7207,0.7237,0.7262,0.7291,0.73,0.7311,0.7335,0.7335,0.7339,0.734,0.7348,0.7354,0.7357,0.7328,0.7328,0.7328,0.7328,0,0,0.7031,0.7076,0.708,0.7096,0.713,0.7149,0.7171,0.72,0.7213,0.7237,0.7257,0.7292,0.7296,0.7313,0.7327,0.7341,0.7354,0.7344,0.7345,0.7345,0.7382,0.7378,0.7381,0.736,0.7361,0.7361,0.7379,0,0.7046,0.7087,0.7106,0.7138,0.716,0.7177,0.7197,0.722,0.7236,0.7258,0.7276,0.73,0.7304,0.7315,0.7329,0.7349,0.7361,0.7348,0.7379,0.738,0.7371,0.7384,0.7381,0.7397,0.7382,0.7382,0.7383,0,0.7069,0.7093,0.7128,0.7159,0.7169,0.7186,0.7214,0.7235,0.7261,0.7272,0.7292,0.7305,0.733,0.7329,0.7363,0.7353,0.7367,0.7379,0.738,0.7384,0.7382,0.7388,0.7402,0.7405,0.7387,0.7387,0.7386,0,0.7066,0.7108,0.7134,0.7147,0.7184,0.7196,0.7212,0.7239,0.7255,0.7279,0.729,0.7317,0.7332,0.7353,0.7373,0.737,0.7406,0.7406,0.7416,0.7415,0.7423,0.7422,0.7439,0.7431,0.7431,0.7431,0.7431,0,0.7081,0.7102,0.7134,0.715,0.7173,0.7195,0.7218,0.7236,0.7259,0.7279,0.7295,0.7313,0.7339,0.736,0.7377,0.7403,0.7409,0.7419,0.7423,0.7418,0.7417,0.7427,0.7427,0.7432,0.7432,0.7431,0.7431,0,0.7083,0.7105,0.7134,0.7167,0.7176,0.7192,0.7221,0.7237,0.7255,0.728,0.7287,0.7314,0.7341,0.7363,0.7398,0.7409,0.7436,0.7441,0.7427,0.7429,0.7438,0.7437,0.7462,0.7467,0.7456,0.7456,0.7456,0,0.7091,0.7107,0.7142,0.7156,0.7172,0.7195,0.7212,0.7234,0.7251,0.7282,0.7295,0.7322,0.7346,0.7387,0.741,0.7437,0.7443,0.745,0.7447,0.7441,0.7443,0.7442,0.7444,0.745,0.745,0.745,0.745,0,0.7103,0.7113,0.7136,0.7163,0.7183,0.7205,0.7228,0.7239,0.7265,0.7283,0.731,0.7328,0.7364,0.7391,0.7421,0.7437,0.7448,0.7451,0.7455,0.7449,0.7441,0.7446,0.7428,0.745,0.745,0.745,0.745,0.745,0.7108,0.7123,0.715,0.7176,0.7195,0.7216,0.7234,0.7253,0.7276,0.7307,0.7319,0.7346,0.7373,0.7413,0.743,0.7452,0.7454,0.7459,0.7461,0.7462,0.7461,0.7437,0.7458,0.7458,0.7458,0.7458,0.7458,0,0.7121,0.7139,0.7162,0.7194,0.7214,0.7222,0.7248,0.7264,0.7289,0.7312,0.7335,0.7366,0.7393,0.7418,0.7446,0.7459,0.7465,0.7466,0.7465,0.7469,0.7458,0.7452,0.7461,0.7461,0.7461,0.7461,0.7461,0.7461,0.713,0.7157,0.717,0.7206,0.7225,0.7252,0.7266,0.7286,0.7305,0.7339,0.7361,0.7377,0.7402,0.7432,0.7457,0.7463,0.7473,0.7472,0.7481,0.747,0.7469,0.7469,0.7464,0.7474,0.7474,0.749,0.749,0.749]}]]